Satellite: SO-50
Catalog number: 27607
Epoch time:      10322.27335041
Element set:     321
Inclination:      064.5580 deg
RA of node:       248.4719 deg
Eccentricity:    0.0047899
Arg of perigee:   015.1534 deg
Mean anomaly:     345.0991 deg
Mean motion:   14.71607156 rev/day
Decay rate:       2.14e-06 rev/day^2
Epoch rev:           42505
Checksum:              287

Satellite: CO-55
Catalog number: 27844
Epoch time:      10321.62418058
Element set:     980
Inclination:      098.7096 deg
RA of node:       328.4033 deg
Eccentricity:    0.0010577
Arg of perigee:   087.1900 deg
Mean anomaly:     273.0500 deg
Mean motion:   14.20746617 rev/day
Decay rate:       1.22e-06 rev/day^2
Epoch rev:           38287
Checksum:              298

Satellite: CO-57
Catalog number: 27848
Epoch time:      10322.52155456
Element set:     929
Inclination:      098.7148 deg
RA of node:       328.4141 deg
Eccentricity:    0.0010475
Arg of perigee:   089.2998 deg
Mean anomaly:     270.9372 deg
Mean motion:   14.20534957 rev/day
Decay rate:        6.9e-07 rev/day^2
Epoch rev:           38295
Checksum:              347

Satellite: AO-51
Catalog number: 28375
Epoch time:      10321.49753592
Element set:    0827
Inclination:      098.0750 deg
RA of node:       306.3774 deg
Eccentricity:    0.0084625
Arg of perigee:   352.8184 deg
Mean anomaly:     007.1790 deg
Mean motion:   14.40709901 rev/day
Decay rate:        5.7e-07 rev/day^2
Epoch rev:           33558
Checksum:              320

Satellite: CP3
Catalog number: 31129
Epoch time:      10321.65012713
Element set:     725
Inclination:      097.9235 deg
RA of node:       352.8807 deg
Eccentricity:    0.0103798
Arg of perigee:   117.6628 deg
Mean anomaly:     243.5159 deg
Mean motion:   14.52334741 rev/day
Decay rate:       1.61e-06 rev/day^2
Epoch rev:           19013
Checksum:              286

Satellite: CO-65
Catalog number: 32785
Epoch time:      10322.26994319
Element set:     839
Inclination:      097.8788 deg
RA of node:       024.9160 deg
Eccentricity:    0.0015502
Arg of perigee:   140.1351 deg
Mean anomaly:     220.1059 deg
Mean motion:   14.81765703 rev/day
Decay rate:       3.52e-06 rev/day^2
Epoch rev:           13830
Checksum:              300

Satellite: KKS-1
Catalog number: 33493
Epoch time:      10322.42335880
Element set:      48
Inclination:      098.1020 deg
RA of node:       083.4048 deg
Eccentricity:    0.0020039
Arg of perigee:   006.0379 deg
Mean anomaly:     354.1076 deg
Mean motion:   14.81203727 rev/day
Decay rate:       9.88e-06 rev/day^2
Epoch rev:            9831
Checksum:              279

Satellite: SOHLA-1
Catalog number: 33496
Epoch time:      10321.84144663
Element set:     257
Inclination:      098.0683 deg
RA of node:       069.0213 deg
Eccentricity:    0.0007707
Arg of perigee:   077.1520 deg
Mean anomaly:     283.0546 deg
Mean motion:   14.69534120 rev/day
Decay rate:       2.02e-06 rev/day^2
Epoch rev:            9744
Checksum:              282

Satellite: TISAT-1
Catalog number: 36799
Epoch time:      10322.79257837
Element set:     323
Inclination:      098.1310 deg
RA of node:       023.7185 deg
Eccentricity:    0.0014402
Arg of perigee:   234.1878 deg
Mean anomaly:     125.7987 deg
Mean motion:   14.80235069 rev/day
Decay rate:       6.56e-06 rev/day^2
Epoch rev:            1918
Checksum:              314

Satellite: STUDSAT
Catalog number: 36801
Epoch time:      10321.75603355
Element set:    0109
Inclination:      098.1332 deg
RA of node:       022.5615 deg
Eccentricity:    0.0013084
Arg of perigee:   227.3338 deg
Mean anomaly:     132.6771 deg
Mean motion:   14.79808596 rev/day
Decay rate:      1.858e-05 rev/day^2
Epoch rev:           01902
Checksum:              286

/EX
SB KEPS @ AMSAT  $ORB10322.W
Orbital Elements  10322.WEATHER

HR AMSAT ORBITAL ELEMENTS FOR WEATHER SATELLITES
FROM WA5QGD FORT WORTH,TX November 18, 2010
BID: ORB10322.W
TO ALL RADIO AMATEURS BT

Satellite: NOAA-10
Catalog number: 16969
Epoch time:      10321.59319897
Element set:    0278
Inclination:      098.6440 deg
RA of node:       349.0171 deg
Eccentricity:    0.0012778
Arg of perigee:   121.1297 deg
Mean anomaly:     239.1131 deg
Mean motion:   14.27434314 rev/day
Decay rate:        6.4e-07 rev/day^2
Epoch rev:           25746
Checksum:              309

Satellite: NOAA-11
Catalog number: 19531
Epoch time:      10321.69020581
Element set:    0287
Inclination:      098.7648 deg
RA of node:       048.0675 deg
Eccentricity:    0.0012356
Arg of perigee:   070.8504 deg
Mean anomaly:     289.4020 deg
Mean motion:   14.14941791 rev/day
Decay rate:      -1.55e-06 rev/day^2
Epoch rev:           14284
Checksum:              296

Satellite: NOAA-12
Catalog number: 21263
Epoch time:      10321.77120538
Element set:    0779
Inclination:      098.7618 deg
RA of node:       334.8893 deg
Eccentricity:    0.0013375
Arg of perigee:   081.1000 deg
Mean anomaly:     279.1689 deg
Mean motion:   14.25667511 rev/day
Decay rate:        7.1e-07 rev/day^2
Epoch rev:           01428
Checksum:              300

Satellite: MET-3/5
Catalog number: 21655
Epoch time:      10321.78912014
Element set:     966
Inclination:      082.5589 deg
RA of node:       200.1109 deg
Eccentricity:    0.0013300
Arg of perigee:   330.8130 deg
Mean anomaly:     029.2292 deg
Mean motion:   13.17026223 rev/day
Decay rate:        5.1e-07 rev/day^2
Epoch rev:           92589
Checksum:              265

